ATLAS 5 CENTAUR DEB, 43970

Orbit data source: Space-Track

ATLAS 5 CENTAUR DEB, 43970 is space debris in HEO originally from a launch on Wed, 17 Sep 2014 UTC launched from the Air Force Eastern Test Range (AFETR). Debris objects in space refer to the collection of defunct objects orbiting the Earth. Examples of debris include non-operational satellites, rocket bodies, and fragments generated from explosions, collisions, or faulty payload assembly.

Loading next visibility...
Identifier
43970, 2014-055Z
Orbit
HEO
Country
Flag of USUS
Related business
Flag of USUnited Launch Alliance/Lockheed Martin (US)
Manufacturer
Unknown
Mission
Spacecraft
Bus & Motor
Unknown
Mass
Unknown
Launch date (UTC)
2014-09-17 (12 years ago)
Launch vehicle
Unknown
Launch site
Air Force Eastern Test Range (AFETR)
Object type
Payload
Rocket body
Debris
Shape & HBR
Unknown shape, 1.1 m
Radar Cross Section
Small (<0.1 m²)

Expand to show TLE details & history
Last TLE update: 2 days ago

TLE from 2 days ago
0 ATLAS 5 CENTAUR DEB
1 43970U 14055Z   26118.20404083 -.00000010  00000-0  00000-0 0  9999
2 43970  20.5336 132.0212 4765256 187.8271 160.7473  1.90354539 53223
Epoch: 2026-04-28T04:53Z
TLE epoch observation values (Epoch: 2026-04-28T04:53:49.127Z)
Latitude
-0.00004°
Longitude
-157.5972°
Altitude
33,861.682 km
Speed
2.306 km/s
True Right ascension
08h 48m 09s
True Declination
0° 00' 00"
Sunlit
Object was in daylight at epoch
Visualization orbit readout
Latitude
Unknown
Longitude
Unknown
Altitude
Unknown
Speed
Unknown
Apparent Right ascension
Unknown
Apparent Declination
Unknown
Sunlit
N/A
Visualization observer readout
Local Sidereal Time
09:32:28
Azimuth
Unknown
Elevation
Unknown
Doppler factor
Unknown
Orbital elements
Apogee altitude
34,231.703 km
Perigee altitude
8,019.319 km
Semi-major axis
27,503.648 km
Eccentricity
0.47653
Inclination
20.5336°
RAAN
132.0212°
Arg. of periapsis
187.8271°
True anomaly
172.19252°
Mean anomaly
160.7473°
Eccentric anomaly
166.92427°
Mean motion
0.47584 °/min
Orbital period
756.56 mins
BSTAR
0
Loading maneuver chart data...
Computing Atmospheric mass density...

Documentation

Showing up to 5 results
|